FENGYUN 1C DEB, 31009

Orbit data source: Space-Track

FENGYUN 1C DEB, 31009 is space debris in SSO originally from a launch on Mon, 10 May 1999 UTC launched from the Taiyaun Space Center, China (TSC). Fengyun 1C debris stems from the Chinese weather satellite Fengyun-1C, which was intentionally destroyed by a Chinese anti-satellite missile in 2007. This event dramatically increased the amount of space debris, with thousands of trackable fragments posing hazards to satellites and human spaceflight. The Fengyun 1C debris cloud has become a focal point in discussions about space sustainability and the need for international regulations to prevent the creation of new debris.

Loading next visibility...
Identifier
31009, 1999-025BDB
Orbit
SSO
Country
Flag of CNCN / PRC
Related business
Manufacturer
Unknown
Mission
Spacecraft
Bus & Motor
Unknown
Mass
Unknown
Launch date (UTC)
1999-05-10 (27 years ago)
Launch vehicle
Unknown
Launch site
Taiyaun Space Center, China (TSC)
Object type
Payload
Rocket body
Debris
Shape & HBR
Unknown shape, 0.1 m
Radar Cross Section
Small (<0.1 m²)

Expand to show TLE details & history
Last TLE update: 12 hours ago

TLE from 12 hours ago
0 FENGYUN 1C DEB
1 31009U 99025BDB 26169.46270301  .00000265  00000-0  20401-3 0  9998
2 31009  98.9130 165.4160 0056362  78.1176  74.8310 14.00552644984881
Epoch: 2026-06-18T11:06Z
TLE epoch observation values (Epoch: 2026-06-18T11:06:17.540Z)
Latitude
26.11813°
Longitude
-83.47612°
Altitude
884.516 km
Speed
7.418 km/s
True Right ascension
23h 19m 12s
True Declination
25° 59' 05"
Sunlit
Object was in daylight at epoch
Visualization orbit readout
Latitude
Unknown
Longitude
Unknown
Altitude
Unknown
Speed
Unknown
Apparent Right ascension
Unknown
Apparent Declination
Unknown
Sunlit
N/A
Visualization observer readout
Local Sidereal Time
10:06:07
Azimuth
Unknown
Elevation
Unknown
Doppler factor
Unknown
Orbital elements
Apogee altitude
930.036 km
Perigee altitude
848.117 km
Semi-major axis
7,267.213 km
Eccentricity
0.00564
Inclination
98.913°
RAAN
165.416°
Arg. of periapsis
78.1176°
True anomaly
75.4555°
Mean anomaly
74.831°
Eccentric anomaly
75.14313°
Mean motion
3.50341 °/min
Orbital period
102.76 mins
BSTAR
0.00020401
Loading maneuver chart data...
Computing Atmospheric mass density...

Documentation

Showing up to 5 results
|